Location: ???????
(55.3754°N, 39.3545°E)
Time: 18:52:05
(UTC+00:00)

Cosmos 1315 Rocket - Pass Details

Date: 14 April 2026
Orbit: 490 x 509 km, 81.2° (Epoch: 19 May)

Event Time Altitude Azimuth Distance (km) Brightness Sun altitude
Exits shadow 19:40:54 44° 67° (ENE) 714 3.3 -21.6°
Drops below altitude 10° 19:43:58 10° 23° (NNE) 1,726 5.9 -21.8°
Sets 19:46:08 0° 18° (NNE) 2,612 7.0 -21.9°
